Gonzales, LA

11:14 AM CDT on June 26, 2017 (GMT -0500)
Gonzales

Weather History for KL38 - November, 2012

Change the Weather History Date:

Friday, November 16, 2012

  Actual Average (KBTR) Record (KBTR)
Temperature  
Mean Temperature 54 °F -  
Max Temperature 66 °F 70 °F 86 °F (1942)
Min Temperature 43 °F 48 °F 24 °F (1940)
Degree Days  
Heating Degree Days 10    
Growing Degree Days 4 (Base 50)    
Moisture  
Dew Point 42 °F    
Average Humidity 69    
Maximum Humidity 95    
Minimum Humidity 38    
Precipitation  
Precipitation 0.00 in - - ()
Sea Level Pressure  
Sea Level Pressure 30.27 in    
Wind  
Wind Speed 3 mph ()    
Max Wind Speed 9 mph    
Max Gust Speed -    
Visibility 10.0 miles    
Events      
Averages and records for this station are not official NWS values.
T = Trace of Precipitation, MM = Missing Value Source: Averaged Metar Reports

Daily Weather History Graph

Daily Weather History Graph

Search for Another Location

Airport or City:

Trip Planner

Search our weather history database for the weather conditions in past years. The results will help you decide how hot, cold, wet, or windy it might be!

Date:

Astronomy

Nov. 16, 2012 Rise Set
Actual Time 6:30 AM CST 5:06 PM CST
Civil Twilight 6:04 AM CST 5:32 PM CST
Nautical Twilight 5:35 AM CST 6:01 PM CST
Astronomical Twilight 5:07 AM CST 6:29 PM CST
Moon 9:21 AM CST (11/16) 8:08 PM CST (11/16)
Length of Visible Light 11h 27m
Length of Day
10h 36m
Waxing Crescent, 12% of the Moon is Illuminated
Nov 16
Waxing Crescent
Nov 20
First Quarter
Nov 28
Full
Dec 6
Last Quarter
Dec 13
New

Hourly Weather History & Observations

Time (CST) Temp. Windchill Dew Point Humidity Pressure Visibility Wind Dir Wind Speed Gust Speed Precip Events Conditions
12:15 AM 50.2 °F - 44.4 °F 81% 30.26 in 10.0 mi North 3.5 mph - N/A   Clear
12:35 AM 49.5 °F - 44.6 °F 83% 30.25 in 10.0 mi North 6.9 mph - N/A   Clear
12:55 AM 50.4 °F - 44.2 °F 80% 30.25 in 10.0 mi North 3.5 mph - N/A   Clear
1:15 AM 50.4 °F - 44.1 °F 79% 30.25 in 10.0 mi NNE 4.6 mph - N/A   Clear
1:35 AM 50.0 °F - 44.1 °F 80% 30.25 in 10.0 mi NNE 4.6 mph - N/A   Clear
1:55 AM 49.5 °F - 43.9 °F 81% 30.25 in 10.0 mi Calm Calm - N/A   Clear
2:15 AM 49.1 °F - 43.7 °F 82% 30.25 in 10.0 mi North 3.5 mph - N/A   Clear
2:35 AM 48.2 °F - 43.7 °F 84% 30.26 in 10.0 mi Calm Calm - N/A   Clear
2:55 AM 45.1 °F - 42.6 °F 91% 30.26 in 10.0 mi Calm Calm - N/A   Clear
3:15 AM 45.3 °F - 42.8 °F 91% 30.26 in 10.0 mi Calm Calm - N/A   Clear
3:35 AM 44.6 °F - 42.6 °F 93% 30.26 in 10.0 mi Calm Calm - N/A   Clear
3:55 AM 46.8 °F - 43.3 °F 88% 30.26 in 10.0 mi Calm Calm - N/A   Clear
4:15 AM 46.4 °F - 43.0 °F 88% 30.26 in 10.0 mi Calm Calm - N/A   Clear
4:35 AM 45.9 °F - 42.8 °F 89% 30.26 in 10.0 mi Calm Calm - N/A   Clear
4:55 AM 44.8 °F - 42.4 °F 91% 30.26 in 10.0 mi Calm Calm - N/A   Clear
5:15 AM 43.9 °F - 42.4 °F 95% 30.26 in 10.0 mi Calm Calm - N/A   Clear
5:35 AM 43.9 °F - 42.4 °F 95% 30.26 in 10.0 mi Calm Calm - N/A   Clear
5:55 AM 44.2 °F - 42.3 °F 93% 30.26 in 10.0 mi Calm Calm - N/A   Clear
6:15 AM 44.1 °F - 42.3 °F 93% 30.27 in 10.0 mi Calm Calm - N/A   Clear
6:35 AM 44.1 °F - 42.1 °F 93% 30.27 in 10.0 mi Calm Calm - N/A   Clear
6:55 AM 44.2 °F - 42.1 °F 92% 30.28 in 10.0 mi Calm Calm - N/A   Clear
7:15 AM 45.1 °F 43.7 °F 42.3 °F 90% 30.29 in 10.0 mi North 3.5 mph - N/A   Clear
7:35 AM 46.4 °F 45.2 °F 42.3 °F 85% 30.29 in 10.0 mi North 3.5 mph - N/A   Clear
7:55 AM 48.0 °F - 42.8 °F 82% 30.29 in 10.0 mi NNE 4.6 mph - N/A   Clear
8:15 AM 49.5 °F - 43.0 °F 78% 30.30 in 10.0 mi NNE 4.6 mph - N/A   Clear
8:35 AM 50.9 °F - 43.0 °F 74% 30.30 in 10.0 mi North 4.6 mph - N/A   Clear
8:55 AM 52.3 °F - 43.7 °F 72% 30.30 in 10.0 mi North 5.8 mph - N/A   Clear
9:15 AM 53.8 °F - 43.7 °F 69% 30.31 in 10.0 mi North 4.6 mph - N/A   Clear
9:35 AM 55.4 °F - 43.7 °F 65% 30.31 in 10.0 mi North 4.6 mph - N/A   Clear
9:55 AM 57.6 °F - 43.9 °F 60% 30.31 in 10.0 mi NNE 3.5 mph - N/A   Clear
10:15 AM 59.2 °F - 43.5 °F 56% 30.31 in 10.0 mi NE 3.5 mph - N/A   Clear
10:35 AM 60.4 °F - 42.8 °F 52% 30.31 in 10.0 mi NE 5.8 mph - N/A   Clear
10:55 AM 61.9 °F - 43.0 °F 50% 30.30 in 10.0 mi NE 6.9 mph - N/A   Clear
11:15 AM 62.6 °F - 43.0 °F 49% 30.30 in 10.0 mi North 9.2 mph - N/A   Clear
11:35 AM 62.8 °F - 42.4 °F 47% 30.29 in 10.0 mi NNE 4.6 mph - N/A   Clear
11:55 AM 63.5 °F - 42.1 °F 46% 30.27 in 10.0 mi ENE 8.1 mph - N/A   Clear
12:15 PM 63.5 °F - 42.3 °F 46% 30.27 in 10.0 mi North 6.9 mph - N/A   Clear
12:35 PM 64.9 °F - 42.4 °F 44% 30.26 in 10.0 mi NNE 8.1 mph - N/A   Clear
12:55 PM 64.8 °F - 41.5 °F 43% 30.25 in 10.0 mi NE 5.8 mph - N/A   Clear
1:15 PM 64.8 °F - 41.5 °F 43% 30.24 in 10.0 mi NNE 9.2 mph - N/A   Clear
1:35 PM 65.5 °F - 41.0 °F 41% 30.24 in 10.0 mi NE 5.8 mph - N/A   Clear
1:55 PM 65.3 °F - 40.6 °F 40% 30.23 in 10.0 mi North 4.6 mph - N/A   Clear
2:15 PM 66.4 °F - 40.8 °F 39% 30.22 in 10.0 mi NNE 8.1 mph - N/A   Clear
2:35 PM 66.4 °F - 40.3 °F 38% 30.22 in 10.0 mi North 8.1 mph - N/A   Clear
2:55 PM 66.2 °F - 41.0 °F 40% 30.22 in 10.0 mi North 4.6 mph - N/A   Clear
3:15 PM 66.4 °F - 41.0 °F 40% 30.22 in 10.0 mi North 6.9 mph - N/A   Clear
3:35 PM 66.2 °F - 39.6 °F 38% 30.22 in 10.0 mi North - - N/A   Clear
3:55 PM 65.8 °F - 39.2 °F 38% 30.22 in 10.0 mi NNE 6.9 mph - N/A   Clear
4:15 PM 65.3 °F - 39.7 °F 39% 30.23 in 10.0 mi North 4.6 mph - N/A   Clear
4:35 PM 64.4 °F - 39.9 °F 41% 30.23 in 10.0 mi NNE 4.6 mph - N/A   Clear
4:55 PM 63.1 °F - 40.3 °F 43% 30.23 in 10.0 mi Calm Calm - N/A   Clear
5:15 PM 61.5 °F - 40.3 °F 46% 30.24 in 10.0 mi Calm Calm - N/A   Clear
5:35 PM 55.6 °F - 45.5 °F 69% 30.24 in 10.0 mi Calm Calm - N/A   Clear
5:55 PM 53.6 °F - 44.2 °F 71% 30.25 in 10.0 mi Calm Calm - N/A   Clear
6:15 PM 52.7 °F - 44.8 °F 74% 30.26 in 10.0 mi Calm Calm - N/A   Clear
6:55 PM 50.2 °F - 44.6 °F 81% 30.26 in 10.0 mi Calm Calm - N/A   Clear
7:15 PM 50.0 °F - 44.8 °F 82% 30.27 in 10.0 mi Calm Calm - N/A   Clear
7:55 PM 48.6 °F - 44.8 °F 87% 30.28 in 10.0 mi Calm Calm - N/A   Clear
8:15 PM 48.4 °F - 44.2 °F 86% 30.28 in 10.0 mi North 3.5 mph - N/A   Clear
8:35 PM 47.8 °F - 44.2 °F 87% 30.28 in 10.0 mi NNW 3.5 mph - N/A   Clear
8:55 PM 47.1 °F - 43.5 °F 87% 30.29 in 10.0 mi North 4.6 mph - N/A   Clear
9:15 PM 47.5 °F - 42.8 °F 84% 30.29 in 10.0 mi North 3.5 mph - N/A   Clear
9:55 PM 48.4 °F - 41.2 °F 76% 30.30 in 10.0 mi North 4.6 mph - N/A   Clear
10:15 PM 49.1 °F - 40.3 °F 72% 30.30 in 10.0 mi North 4.6 mph - N/A   Clear
10:35 PM 49.3 °F - 39.9 °F 70% 30.30 in 10.0 mi North 5.8 mph - N/A   Clear
10:55 PM 50.0 °F - 39.2 °F 66% 30.31 in 10.0 mi North 5.8 mph - N/A   Clear
11:15 PM 47.7 °F - 39.2 °F 72% 30.31 in 10.0 mi North 4.6 mph - N/A   Clear
11:35 PM 49.1 °F - 39.0 °F 68% 30.31 in 10.0 mi North 4.6 mph - N/A   Clear
11:55 PM 48.9 °F - 38.7 °F 68% 30.31 in 10.0 mi North 4.6 mph - N/A   Clear